Diodes Menu Close

Description

The AP7354 is a low dropout regulator with 1% output voltage accuracy. The AP7354 includes a voltage reference, error amplifier, current limit circuit and an enable input. When a low signal is applied to the EN pin, the part is disabled and the supply current is now is merely a leakage current of less than 200 nA..

With its ultra-low quiescent current, the AP7354 is well suited for low-power handheld, wearable devices, and other battery-operated devices that may require an extended time period between battery replacements.

The AP7354 is available in the SOT25 package.

Application

  • Wearable Electronics
  • Sensor Module for Internet-of-Things (IoT)
  • Wireless Communication Module
  • Battery-Operated Device
  • Camera
  • Image Sensor

Features

  • Low VIN and Wide VIN Range: 2.0 V to 5.5
  • Guarantee Output Current, 150mA
  • Output Voltage Range: 1.2 to 4.5V 
  • VOUT Accuracy: ±1%
  • Quiescent Current as Low as 0.25µA
  • Typical Standby Current 0.02µA
  • ESD Protection Exceeds JESD 22
  • Exceeds 4000-V Human Body Model (A114)
  • Exceeds 400-V Machine Model (A115)
  • Latch-Up Exceeds 400mA per JESD 78, Class I
  • Totally Lead-Free & and Fully RoHS Compliant
  • Halogen and Antimony Free. “Green” Device

Product Specifications

Product Parameters

Features Low IQ, Small-size
IOUT 0.15 A
VIN (Max) 5.5 V
VIN (Min) 2 V
VOUT 1.2, 1.5, 1.8, 1.85, 2.5, 2.8, 3.0, 3.3, 4.5 V
IQ 0.25 µA
PSRR 23 dB
VDROPOUT (Max) 0.35 V
Operating Temperature (Ambient) -40 to 85
Enable Active H
Channels 1

Related Content

Packages
SOT23
SOT25
X2-DFN1010-4

Applications

Technical Documents

Recommended Soldering Techniques
Orderable Part Number Authorized Distributor Quantity Inventory Date Buy Online Region
AP7354-12FS4-7 Arrow Electronics 5000 12/12/2019 Buy Now United States
AP7354-12FS4-7 Digi-Key Electronics 5000 12/12/2019 Buy Now United States
AP7354-12FS4-7 Mouser Electronics Inc. 5000 12/12/2019 Buy Now United States
AP7354-12W5-7 Digi-Key Electronics 5364 12/12/2019 Buy Now United States
AP7354-15FS4-7 Arrow Electronics 5000 12/12/2019 Buy Now United States
AP7354-15FS4-7 Digi-Key Electronics 5000 12/12/2019 Buy Now United States
AP7354-15FS4-7 Mouser Electronics Inc. 4900 12/12/2019 Buy Now United States
AP7354-15SA-7 Mouser Electronics Inc. 2990 12/12/2019 Buy Now United States
AP7354-185FS4-7 Arrow Electronics 5000 12/12/2019 Buy Now United States
AP7354-185FS4-7 Digi-Key Electronics 4813 12/12/2019 Buy Now United States
AP7354-185FS4-7 Mouser Electronics Inc. 4933 12/12/2019 Buy Now United States
AP7354-185W5-7 Digi-Key Electronics 2780 12/12/2019 Buy Now United States
AP7354-185W5-7 Mouser Electronics Inc. 3000 12/12/2019 Buy Now United States
AP7354-18FS4-7 Arrow Electronics 4950 12/12/2019 Buy Now United States
AP7354-18FS4-7 Digi-Key Electronics 4765 12/12/2019 Buy Now United States
AP7354-18FS4-7 Mouser Electronics Inc. 4565 12/12/2019 Buy Now United States
AP7354-18W5-7 Digi-Key Electronics 3483 12/12/2019 Buy Now United States
AP7354-18W5-7 Mouser Electronics Inc. 2107 12/12/2019 Buy Now United States
AP7354-25FS4-7 Arrow Electronics 5000 12/12/2019 Buy Now United States
AP7354-25FS4-7 Digi-Key Electronics 5000 12/12/2019 Buy Now United States
AP7354-25FS4-7 Mouser Electronics Inc. 4970 12/12/2019 Buy Now United States
AP7354-28FS4-7 Arrow Electronics 5000 12/12/2019 Buy Now United States
AP7354-28FS4-7 Digi-Key Electronics 4880 12/12/2019 Buy Now United States
AP7354-28FS4-7 Mouser Electronics Inc. 4980 12/12/2019 Buy Now United States
AP7354-30FS4-7 Arrow Electronics 4998 12/12/2019 Buy Now United States
AP7354-30FS4-7 Digi-Key Electronics 4609 12/12/2019 Buy Now United States
AP7354-30FS4-7 Mouser Electronics Inc. 4255 12/12/2019 Buy Now United States
AP7354-30W5-7 Mouser Electronics Inc. 1950 12/12/2019 Buy Now United States
AP7354-33FS4-7 Arrow Electronics 5000 12/12/2019 Buy Now United States
AP7354-33FS4-7 Digi-Key Electronics 4970 12/12/2019 Buy Now United States
AP7354-33FS4-7 Mouser Electronics Inc. 2560 12/12/2019 Buy Now United States
AP7354-33W5-7 Avnet EU 6000 12/12/2019 Buy Now Germany
AP7354-33W5-7 Digi-Key Electronics 3726 12/12/2019 Buy Now United States
AP7354-33W5-7 Mouser Electronics Inc. 6019 12/12/2019 Buy Now United States
AP7354-33W5-7 Future Electronics - Asia 159000 12/11/2019 Singapore
AP7354-45FS4-7 Arrow Electronics 5000 12/12/2019 Buy Now United States
AP7354-45FS4-7 Digi-Key Electronics 5000 12/12/2019 Buy Now United States
AP7354-45FS4-7 Mouser Electronics Inc. 5000 12/12/2019 Buy Now United States
AP7354-45W5-7 Digi-Key Electronics 3000 12/12/2019 Buy Now United States
AP7354-45W5-7 Mouser Electronics Inc. 2900 12/12/2019 Buy Now United States
AP7354D-12FS4-7 Mouser Electronics Inc. 5000 12/12/2019 Buy Now United States
AP7354D-12W5-7 Digi-Key Electronics 2998 12/12/2019 Buy Now United States
AP7354D-12W5-7 Mouser Electronics Inc. 2995 12/12/2019 Buy Now United States
AP7354D-15W5-7 Digi-Key Electronics 2872 12/12/2019 Buy Now United States
AP7354D-15W5-7 Mouser Electronics Inc. 2615 12/12/2019 Buy Now United States
AP7354D-185W5-7 Arrow Electronics 3000 12/12/2019 Buy Now United States
AP7354D-185W5-7 Digi-Key Electronics 2994 12/12/2019 Buy Now United States
AP7354D-185W5-7 Mouser Electronics Inc. 2865 12/12/2019 Buy Now United States
AP7354D-18W5-7 Digi-Key Electronics 5002 12/12/2019 Buy Now United States
AP7354D-18W5-7 Mouser Electronics Inc. 11838 12/12/2019 Buy Now United States
AP7354D-25W5-7 Digi-Key Electronics 1938 12/12/2019 Buy Now United States
AP7354D-25W5-7 Mouser Electronics Inc. 2985 12/12/2019 Buy Now United States
AP7354D-28W5-7 Digi-Key Electronics 2935 12/12/2019 Buy Now United States
AP7354D-28W5-7 Mouser Electronics Inc. 2627 12/12/2019 Buy Now United States
AP7354D-30W5-7 Digi-Key Electronics 1087 12/12/2019 Buy Now United States
AP7354D-30W5-7 Mouser Electronics Inc. 3369 12/12/2019 Buy Now United States
AP7354D-33FS4-7 Digi-Key Electronics 3530 12/12/2019 Buy Now United States
AP7354D-33W5-7 Digi-Key Electronics 3741 12/12/2019 Buy Now United States
AP7354D-33W5-7 Mouser Electronics Inc. 1142 12/12/2019 Buy Now United States
AP7354D-45W5-7 Digi-Key Electronics 3000 12/12/2019 Buy Now United States
AP7354D-45W5-7 Mouser Electronics Inc. 3000 12/12/2019 Buy Now United States